PST,Max TemperatureF,Mean TemperatureF,Min TemperatureF,Max Dew PointF,MeanDew PointF,Min DewpointF,Max Humidity, Mean Humidity, Min Humidity, Max Sea Level PressureIn, Mean Sea Level PressureIn, Min Sea Level PressureIn, Max VisibilityMiles, Mean VisibilityMiles, Min VisibilityMiles, Max Wind SpeedMPH, Mean Wind SpeedMPH, Max Gust SpeedMPH,PrecipitationIn, CloudCover, Events, WindDirDegrees
2012-12-1,51,48,46,50,45,43,100,85,76,29.59,29.48,29.31,10,10,7,20,14,31,0.02,7,,148
2012-12-2,48,45,42,48,46,43,100,97,87,29.75,29.45,29.18,10,9,2,14,8,22,0.17,7,,151
2012-12-3,51,46,42,46,46,43,100,92,82,30.00,29.86,29.62,10,10,8,16,9,29,0.00,7,,129
2012-12-4,53,48,42,52,47,41,100,91,71,29.80,29.65,29.48,10,9,2,17,10,29,0.25,8,,179
2012-12-5,46,42,39,41,38,34,100,80,66,30.18,30.08,29.80,10,10,9,14,8,24,0.00,5,,174
2012-12-6,44,42,41,45,43,41,100,100,93,30.11,30.08,30.05,10,9,4,13,6,,0.13,8,,183
2012-12-7,46,40,35,45,40,36,100,96,71,30.14,30.03,29.95,10,9,2,17,6,22,0.31,6,,208
2012-12-8,42,38,33,39,36,34,100,99,87,30.37,30.25,30.14,10,9,4,6,1,,0.00,3,,169
2012-12-9,39,38,37,39,37,36,100,97,87,30.38,30.35,30.31,10,6,2,14,6,17,0.06,7,,65
2012-12-10,44,42,39,45,41,39,100,100,100,30.43,30.33,30.08,10,5,0,10,2,,0.17,8,,124
2012-12-11,44,42,39,45,43,39,100,97,87,30.06,29.71,29.56,10,8,2,16,8,25,0.21,8,,115
2012-12-12,44,42,39,45,41,39,100,99,93,30.04,29.84,29.61,10,7,2,7,3,,0.14,8,,5
2012-12-13,42,40,39,41,39,37,100,96,81,30.05,29.95,29.80,10,7,2,12,3,,0.70,7,,127
2012-12-14,41,37,33,39,37,34,100,99,93,29.94,29.88,29.79,10,7,1,9,4,16,0.08,6,,99
2012-12-15,42,38,33,39,36,32,100,92,70,29.91,29.69,29.51,10,8,4,18,9,26,0.11,7,,133
2012-12-16,46,42,37,43,39,37,100,96,87,29.73,29.45,28.96,10,8,5,22,9,29,0.02,7,,135
2012-12-17,46,40,35,45,38,34,100,93,76,29.87,29.46,28.95,10,7,3,24,10,31,0.23,6,,197
2012-12-18,39,36,33,37,35,34,100,96,81,29.97,29.92,29.86,10,8,3,16,7,24,0.00,6,,153
2012-12-19,42,40,37,41,37,32,100,90,75,29.92,29.69,29.57,10,8,2,21,16,32,0.07,7,,135
2012-12-20,46,42,37,45,41,36,100,96,81,29.83,29.64,29.50,10,7,3,16,10,26,0.30,7,,143
2012-12-21,42,38,33,41,36,32,100,91,81,29.82,29.75,29.69,10,9,2,16,8,21,0.01,3,,79
2012-12-22,46,42,39,45,39,36,100,88,76,29.72,29.59,29.51,10,8,2,18,10,30,0.10,6,,108
2012-12-23,44,42,39,41,39,37,100,90,76,29.82,29.72,29.64,10,8,4,18,9,24,0.10,7,,93
2012-12-24,42,40,37,43,39,37,100,99,93,30.17,30.07,29.83,10,7,2,13,3,,0.03,7,,126
2012-12-25,42,40,37,39,36,32,100,88,75,30.06,29.77,29.66,10,9,3,15,10,21,0.10,6,,91
2012-12-26,46,42,39,43,40,37,100,93,76,29.91,29.77,29.69,10,8,3,15,10,21,0.14,8,,96
2012-12-27,44,42,39,45,41,39,100,100,93,30.17,30.09,29.92,10,6,0,8,3,,0.02,8,,130
2012-12-28,42,40,39,41,39,37,100,94,87,30.18,30.15,30.12,10,9,7,13,7,,0.00,4,,56
2012-12-29,39,38,37,39,39,37,100,100,100,30.24,30.19,30.17,10,6,1,7,2,,0.14,8,,68
2012-12-30,37,34,30,37,34,30,100,100,100,30.34,30.31,30.25,10,4,0,7,3,,0.00,6,,99
2012-12-31,39,36,32,39,34,32,100,99,93,30.48,30.35,30.27,10,8,0,12,3,,0.00,5,,3